www.pogodaiklimat.ru

Погода и климат >> Архив погоды >> Россия >> Калмыкия >> Лагань


ПОГОДА в Лагани

  • Прогноз погоды в Лагани
  • Монитор погоды в Лагани

АРХИВ ПОГОДЫ в Лагани

Время (UTC), дата Ветер
(напр.,м/с)
 
Видим.   Явления Облачность Т
(С)
Тd
(С)
f
(%)
Тe
(С)
Тes
(С)
Комфортность P
(гПа)
Po
(гПа)
Тmin
(С)
Tmax
(С)
R
(мм)
R24
(мм)
S
(см)
06 15.04 В 8-13
{14}
20 км 4/0
[Ci sp]
+17.7 +10.6 63 +17 +18 1012.4 1015.0
09 15.04 В 9-14
{15}
10 км пыльный позёмок 6/0
[Ci sp]
+19.3 +9.4 53 +19 +21 1012.4 1015.0
12 15.04 ЮВ 10-12
{17}
10 км пыльный позёмок 8/0
[Ci sp]
+17.0 +10.2 64 +15 +16 1013.1 1015.7
15 15.04 В 7
{13}
20 км 8/0
[Ac cuf Ci sp]
+15.4 +10.7 74 +14 +14 1013.0 1015.6 +19.4
18 15.04 В 4 10 км 10/0
[Ci sp]
+14.2 +11.2 82 +13 +13 1014.0 1016.6
21 15.04 В 4 20 км 8/0
[Ci sp]
+14.2 +10.4 78 +13 +13 1011.9 1014.5
00 16.04 В 4 10 км 6/0
[Ci sp]
+13.2 +10.4 83 +11 +11 1010.8 1013.4
03 16.04 В 5 10 км 8/0
[Ac cuf Ci sp]
+14.0 +11.4 84 +12 +12 1010.8 1013.4 +12.6
06 16.04 В 4 20 км 10/0
[Ac As]
+16.1 +10.8 71 +15 +17 1010.8 1013.4
09 16.04 В 5 20 км 10/8 600 м
[Cu med, cong Ac As]
+16.6 +11.0 69 +16 +16 1010.1 1012.7
12 16.04 В 3 20 км {метель} 10/8 600 м
[Cb cap Ac As]
+15.2 +10.2 72 +15 +15 1009.1 1011.7
15 16.04 В 1 20 км 10/8 600 м
[Cb cap Ac As]
+13.7 +10.0 78 +14 +14 1008.8 1011.5 +18.2
18 16.04 ЮВ 2 10 км 10/8 600 м
[Cb cap Ac As]
+13.4 +10.3 81 +13 +13 1009.4 1012.0
21 16.04 ЮЗ 2 10 км 10/8 600 м
[Cb cap Ac As]
+14.1 +11.8 86 +14 +14 1008.2 1010.8
00 17.04 ЮЗ 2 10 км слаб. ливневой дождь 10/8 600 м
[Cb cap Ac As]
+13.6 +11.8 89 +13 +13 1008.0 1010.7
03 17.04 штиль 0 4000 м слаб. ливневой дождь 10/8 600 м
[Cb cap Ac As]
+12.7 +11.7 94 +12 +12 1007.5 1010.1 +12.6 0.8
06 17.04 ЮЗ 1 4000 м дымка {ливн. осадки} 10/8 600 м
[Cb cap Ac As]
+13.1 +11.9 92 +13 +14 1007.7 1010.4
09 17.04 С 2 10 км 10/8 600 м
[Cb cap Ac As]
+14.2 +12.2 88 +14 +15 1007.1 1009.7
12 17.04 СВ 8-14
{14}
4000 м слаб. ливневой дождь 10/8 600 м
[Cb cap Ac As]
+10.4 +9.4 94 +6 +6 1007.2 1009.9
15 17.04 СВ 8-14
{17}
4000 м слаб. ливневой дождь 10/8 600 м
[Cb cap Ac As]
+7.4 +6.1 91 +2 +2 1008.8 1011.5 +14.2 5
18 17.04 С 9-15
{16}
4000 м ливневой дождь 10/8 600 м
[Cb cap Ac As]
+5.9 +4.6 91 -0 -0 1011.0 1013.7
21 17.04 С 7-11
{18}
10 км слаб. ливневой дождь 10/8 600 м
[Cb cap Ac As]
+4.7 +2.1 83 -1 -1 1011.7 1014.4
00 18.04 С 7-10
{13}
20 км в посл. час ливневой дождь 10/6 600 м
[Cb cap Ac As]
+4.7 -0.3 70 -1 -1 1012.9 1015.7
03 18.04 С 5
{14}
20 км 10/0
[Ac As]
+4.6 0.0 72 0 0 1015.5 1018.2 +4.5 5
06 18.04 С 7-12
{13}
20 км 8/3 600 м
[Cb cap Ac cuf]
+6.2 -1.9 56 +2 +3 1018.2 1020.9 +4.2
09 18.04 С 5
{12}
20 км 8/4 600 м
[Sc diur, vesp Ac trans]
+7.1 -2.2 52 +4 +7 1020.1 1022.9
12 18.04 С 4
{10}
20 км 5/3 1000 м
[Sc diur, vesp Ci sp]
+9.4 -3.4 40 +7 +11 1020.5 1023.2
15 18.04 С 4 20 км 6/0
[Ci sp]
+7.4 -5.5 39 +5 +5 1021.4 1024.1 +9.7
18 18.04 В 1 20 км 4/0
[Ci fib]
+3.2 -1.4 72 +2 +2 1023.3 1026.1
21 18.04 СЗ 2 10 км 6/0
[Ac trans Ci fib]
+1.3 -1.5 82 -2 -2 1023.1 1025.9
00 19.04 С 1 10 км 8/0
[Ac trans Ci fib]
+0.5 -2.3 81 -1 -1 1023.1 1025.9
03 19.04 СВ 3 10 км 9/0
[Ac As]
+1.7 -1.4 80 -3 -2 1023.4 1026.2 -0.1
06 19.04 СВ 4 20 км 6/0
[Ac cuf Ci sp]
+7.0 -5.6 40 +4 +9 1024.3 1027.0
09 19.04 В 5
{11}
20 км 8/0
[Ac trans]
+9.2 -8.0 29 +7 +11 1023.7 1026.4
12 19.04 ЮВ 6
{11}
20 км 8/0
[Ac trans]
+8.6 -5.0 38 +5 +7 1023.3 1026.1
15 19.04 ЮВ 4 20 км 8/0
[Ac trans Ci sp]
+7.1 -3.9 45 +4 +4 1023.7 1026.4 +9.8
18 19.04 СВ 2 20 км 3/0
[Ci fib]
+3.9 -3.1 60 +2 +2 1024.7 1027.5
21 19.04 С 3 20 км 3/0
[Ci fib]
+1.7 -1.9 77 -2 -2 1024.5 1027.3
00 20.04 С 3 20 км 6/0
[Ac trans]
+1.7 -1.9 77 -2 -2 1023.5 1026.3
03 20.04 С 3 20 км 4/0
[Ac cuf Ci fib]
+2.3 -2.0 73 -2 -1 1023.4 1026.2 +0.8
06 20.04 СВ 4 20 км 9/0
[Ac trans Ci fib]
+11.5 -8.0 25 +10 +14 1023.4 1026.1
09 20.04 В 5
{11}
20 км 8/0
[Ac trans Ci fib]
+12.4 -8.2 23 +11 +16 1023.2 1025.9
12 20.04 В 6 20 км 8/0
[Ac trans]
+12.3 -7.2 25 +10 +12 1023.2 1025.9
15 20.04 ЮВ 4 20 км 6/0
[Ac trans Ci fib]
+10.1 -7.6 28 +8 +8 1023.8 1026.5 +12.8
18 20.04 СЗ 1 20 км 8/0
[Ci fib]
+4.8 -3.3 56 +4 +4 1024.5 1027.3
21 20.04 С 1 20 км 8/0
[Ac trans Ci fib]
+3.2 -4.1 59 +2 +2 1024.2 1027.0
00 21.04 С 3 20 км 6/0
[Ci fib]
+2.3 -3.2 67 -2 -2 1023.5 1026.3
03 21.04 С 4 20 км 8/0
[Ac trans Ci fib]
+3.9 -3.7 58 0 0 1023.9 1026.7 +2.0
06 21.04 СВ 5 20 км 5/0
[Ac cast Ci sp]
+12.5 -5.8 27 +11 +15 1024.2 1026.9
09 21.04 В 7-10
{10}
20 км 8/4 1000 м
[Cu med, cong Ci sp]
+13.6 -4.5 28 +12 +14 1024.1 1026.8
12 21.04 ЮВ 6
{12}
20 км 4/3 1000 м
[Cu med, cong Ci sp]
+13.5 -0.3 39 +12 +14 1023.8 1026.5
15 21.04 ЮВ 5 20 км 3/0
[Ci sp]
+11.2 +0.2 47 +9 +9 1024.0 1026.7 +14.1
18 21.04 В 1 20 км ясно +5.2 +0.5 72 +4 +4 1024.7 1027.5
21 21.04 СВ 2 10 км ясно +3.9 +0.9 81 +1 +1 1024.6 1027.4
00 22.04 СВ 3 10 км ясно +3.6 +0.8 82 -0 -0 1024.4 1027.1
03 22.04 СВ 3 20 км ясно +5.8 +2.0 77 +3 +3 1024.8 1027.5 +3.1

 

Местоположение метеостанции Лагань (Калмыкия, Россия): широта 45.40 долгота 47.35 высота над уровнем моря -25 м.

В архиве по умолчанию представлена погода в Лагани за последнюю неделю. Архивные данные за месяц целиком и за предыдущие месяцы, начиная с января 2011 года, Вы можете получить, выбрав интересующий диапазон дат из раскрывающегося списка и нажав кнопку "Ввод!".


*Определитесь, кто Вы:
робот инопланетянин человек

Внимание! Время в таблицах - всемирное. Для получения местного времени необходимо прибавить поправку, которая равна 3 ч.

Смотрите также архив погоды в соседних городах и на ближайших метеорологических станциях:

Погода в Лимане (Астраханская область, Россия) (46 км)
Погода в Артезиане (Калмыкия, Россия) (70 км)
Погода в Комсомольском (Калмыкия, Россия) (103 км)
Погода на Острове Тюлений (Дагестан, Россия) (104 км)
Погода в Астрахани (Астраханская область, Россия) (109 км)
Погода в Кочубее (Дагестан, Россия) (128 км)
Погода в Зеленге (Астраханская область, Россия) (131 км)
Погода в Утте (Калмыкия, Россия) (149 км)
Погода в Южно-Сухокумске (Дагестан, Россия) (158 км)
Погода в Досанге (Астраханская область, Россия) (175 км)

Пояснения к столбцам:

Ветер - указаны скорость ветра в м/с - средняя за 10 мин, порывы в срок и между сроками (в фигурных скобках) и направление, откуда дует ветер: С - северный, СВ - северо-восточный, В - восточный, ЮВ - юго-восточный, Ю - южный, ЮЗ - юго-западный, З - западный, СЗ - северо-западный.
Видимость - горизонтальная дальность видимости в метрах или километрах. При видимости от 1 до 10 км при отсутствии осадков обычно наблюдается дымка, при ухудшении видимости до 1 км и менее - туман. В сухую погоду видимость может ухудшаться дымом, пылью или мглою.
Явления - указаны атмосферные явления, наблюдавшиеся в срок или в последний час перед сроком; фигурными скобками обозначены явления, наблюдавшиеся между сроками (за 1-3 часа до срока); квадратными скобками обозначены град или гололедные отложения с указанием их диаметра в мм.
Облачность - указаны через наклонную черту общая и нижняя облачность в баллах и высота нижней границы облаков в метрах; квадратными скобками обозначены формы облаков: Ci - перистые, Cs - перисто-слоистые, Cc - перисто-кучевые, Ac - высококучевые, As - высокослоистые, Sc - слоисто-кучевые, Ns - слоисто-дождевые, Cu - кучевые, Cb - кучево-дождевые. Подробнее классификацию облаков см. в Атласе облаков (PDF).
T - Температура воздуха - температура, измеренная на высоте 2 м над землей.
Td - Температура точки росы - температура, при понижении до которой содержащийся в воздухе водяной пар достигнет насыщения.
f - Относительная влажность воздуха - влажноcть воздуха, измеренная на высоте 2 м над землей.
Te - Эффективная температура - температура, которую ощущает одетый по сезону человек в тени. Характеристика душности погоды. При расчете учитывается влияние влажности воздуха и скорости ветра на теплоощущения человека.
Tes - Эффективная температура на солнце - температура, которую ощущает человек, с поправкой на солнечный нагрев. Характеристика знойности погоды. Зависит от высоты солнца над горизонтом, облачности и скорости ветра. Ночью, в пасмурную погоду, а также при ветре 12 м/с и более поправка равна нулю.
P - Атмосферное давление - приведенное к уровню моря атмосферное давление.
Po - Атмосферное давление - измеренное на уровне метеостанции атмосферное давление.
Tmin - Минимальная температура - минимум температуры воздуха на высоте 2 м над землей.
Tmax - Максимальная температура - максимум температуры воздуха на высоте 2 м над землей.
R - Количество осадков - Количество выпавших осадков за период времени, мм. При наведении курсора мыши на число - период времени, за который выпало указанное количество осадков.
R24 - Количество осадков - Количество выпавших осадков за 24 часа, мм.
S - Снежный покров - Высота снежного покрова, см. При наведении курсора мыши на число - состояние снежного покрова и степень покрытия местности в баллах.